EXS5UW EGBB-LEPA

Flight info

Callsign EXS5UW
Flight time 2h 11m
Altitude 35000
Route ADMEX Y321 CPT UN859 SOPIL DCT BALAN DCT EVPOK DCT NARAK DCT GAI DCT LOMRA DCT ROCAN DCT IBRAP N13 LORES
Aircraft A321/M-SDE3FGHIRWY/LB1

Departure

Time 2026-05-04 10:13
Airport Birmingham Airport (EGBB)

Arrival

Time 2026-05-04 12:24
Airport Palma de Mallorca Airport (LEPA)
Time Latitude Longitude Altitude Speed Heading
2026-05-04 09:29 52.45036 -1.73320 321 ft 0 kts 326°
2026-05-04 10:04 52.45007 -1.73269 323 ft 2 kts 274°
2026-05-04 10:04 52.45007 -1.73253 320 ft 0 kts 236°
2026-05-04 10:08 52.44909 -1.73491 323 ft 5 kts 236°
2026-05-04 10:08 52.44893 -1.73558 323 ft 8 kts 251°
2026-05-04 10:08 52.44862 -1.73641 323 ft 8 kts 231°
2026-05-04 10:08 52.44821 -1.73686 323 ft 7 kts 198°
2026-05-04 10:09 52.44765 -1.73714 324 ft 12 kts 197°
2026-05-04 10:09 52.44677 -1.73690 323 ft 13 kts 148°
2026-05-04 10:09 52.44604 -1.73609 324 ft 12 kts 146°
2026-05-04 10:09 52.44536 -1.73534 324 ft 11 kts 146°
2026-05-04 10:10 52.44473 -1.73465 324 ft 10 kts 146°
2026-05-04 10:10 52.44413 -1.73409 324 ft 9 kts 166°
2026-05-04 10:10 52.44372 -1.73432 322 ft 0 kts 226°
2026-05-04 10:11 52.44368 -1.73439 323 ft 5 kts 226°
2026-05-04 10:12 52.44325 -1.73540 324 ft 15 kts 242°
2026-05-04 10:12 52.44376 -1.73675 324 ft 12 kts 323°
2026-05-04 10:12 52.44579 -1.73904 327 ft 70 kts 326°
2026-05-04 10:12 52.45149 -1.74537 327 ft 128 kts 326°
2026-05-04 10:13 52.46020 -1.75502 335 ft 171 kts 328°
2026-05-04 10:13 52.47016 -1.76585 880 ft 171 kts 327°
2026-05-04 10:13 52.48004 -1.77732 1487 ft 177 kts 326°
2026-05-04 10:13 52.49016 -1.78936 2123 ft 181 kts 327°
2026-05-04 10:14 52.50159 -1.79954 2428 ft 197 kts 349°
2026-05-04 10:14 52.51577 -1.79875 2648 ft 216 kts 19°
2026-05-04 10:16 52.51065 -1.64087 6775 ft 274 kts 136°
2026-05-04 10:16 52.49681 -1.61880 7424 ft 279 kts 136°
2026-05-04 10:16 52.48296 -1.59664 8150 ft 283 kts 136°
2026-05-04 10:16 52.46884 -1.57396 8889 ft 285 kts 136°
2026-05-04 10:17 52.45325 -1.55354 9592 ft 288 kts 149°
2026-05-04 10:17 52.43602 -1.53656 10229 ft 294 kts 150°
2026-05-04 10:19 52.28138 -1.43984 13139 ft 363 kts 171°
2026-05-04 10:19 52.25643 -1.43275 13750 ft 365 kts 171°
2026-05-04 10:19 52.23127 -1.42561 14289 ft 368 kts 171°
2026-05-04 10:19 52.20627 -1.41852 14801 ft 371 kts 171°
2026-05-04 10:20 52.18084 -1.41134 15313 ft 373 kts 171°
2026-05-04 10:20 52.15508 -1.40410 15825 ft 376 kts 171°
2026-05-04 10:20 52.12924 -1.39683 16343 ft 378 kts 171°
2026-05-04 10:20 52.10324 -1.38954 16846 ft 380 kts 171°
2026-05-04 10:21 52.07709 -1.38220 17327 ft 383 kts 171°
2026-05-04 10:21 52.05078 -1.37482 17801 ft 385 kts 171°
2026-05-04 10:21 52.02431 -1.36741 18266 ft 387 kts 171°
2026-05-04 10:21 51.99770 -1.35996 18674 ft 388 kts 171°
2026-05-04 10:22 51.94423 -1.34495 19043 ft 390 kts 171°
2026-05-04 10:22 51.91748 -1.33748 19060 ft 390 kts 171°
2026-05-04 10:22 51.89108 -1.33013 19050 ft 390 kts 171°
2026-05-04 10:23 51.86431 -1.32273 19056 ft 390 kts 171°
2026-05-04 10:23 51.83761 -1.31532 19052 ft 390 kts 171°
2026-05-04 10:25 51.64862 -1.26299 21097 ft 400 kts 172°
2026-05-04 10:25 51.62111 -1.25538 21499 ft 402 kts 172°
2026-05-04 10:25 51.59343 -1.24774 21904 ft 404 kts 172°
2026-05-04 10:25 51.56565 -1.24009 22304 ft 406 kts 172°
2026-05-04 10:26 51.53771 -1.23241 22712 ft 408 kts 172°
2026-05-04 10:26 51.50964 -1.22461 23124 ft 411 kts 170°
2026-05-04 10:26 51.48199 -1.21204 23510 ft 415 kts 161°
2026-05-04 10:26 51.45548 -1.19320 23840 ft 418 kts 157°
2026-05-04 10:27 51.42900 -1.17353 24180 ft 420 kts 157°
2026-05-04 10:27 51.40274 -1.15411 24525 ft 421 kts 158°
2026-05-04 10:27 51.37610 -1.13449 24868 ft 422 kts 158°
2026-05-04 10:27 51.34939 -1.11489 25216 ft 423 kts 158°
2026-05-04 10:28 51.32261 -1.09527 25572 ft 424 kts 158°
2026-05-04 10:28 51.29579 -1.07568 25923 ft 425 kts 158°
2026-05-04 10:28 51.26887 -1.05605 26275 ft 426 kts 158°
2026-05-04 10:28 51.24188 -1.03637 26605 ft 427 kts 158°
2026-05-04 10:29 51.21483 -1.01666 26942 ft 428 kts 158°
2026-05-04 10:29 51.18771 -0.99691 27265 ft 429 kts 158°
2026-05-04 10:29 51.16052 -0.97715 27579 ft 430 kts 158°
2026-05-04 10:29 51.13327 -0.95738 27872 ft 431 kts 158°
2026-05-04 10:30 51.10585 -0.93750 28137 ft 432 kts 159°
2026-05-04 10:30 51.07851 -0.91769 28406 ft 433 kts 159°
2026-05-04 10:30 51.05147 -0.89808 28659 ft 433 kts 159°
2026-05-04 10:30 51.02404 -0.87823 28893 ft 434 kts 159°
2026-05-04 10:31 50.99652 -0.85836 29171 ft 434 kts 159°
2026-05-04 10:31 50.96908 -0.83858 29516 ft 432 kts 159°
2026-05-04 10:32 50.80956 -0.71011 31150 ft 430 kts 151°
2026-05-04 10:33 50.78438 -0.68443 31370 ft 431 kts 151°
2026-05-04 10:33 50.75921 -0.65882 31590 ft 431 kts 151°
2026-05-04 10:33 50.73397 -0.63319 31812 ft 431 kts 151°
2026-05-04 10:33 50.70868 -0.60756 32012 ft 432 kts 151°
2026-05-04 10:34 50.68338 -0.58198 32228 ft 432 kts 151°
2026-05-04 10:34 50.65838 -0.55672 32422 ft 433 kts 151°
2026-05-04 10:34 50.63298 -0.53107 32674 ft 432 kts 151°
2026-05-04 10:34 50.60775 -0.50560 32944 ft 431 kts 150°
2026-05-04 10:35 50.58251 -0.48016 33178 ft 431 kts 150°
2026-05-04 10:35 50.55728 -0.45476 33394 ft 431 kts 150°
2026-05-04 10:35 50.53197 -0.42938 33602 ft 431 kts 150°
2026-05-04 10:35 50.50666 -0.40404 33806 ft 432 kts 150°
2026-05-04 10:36 50.48131 -0.37862 34003 ft 432 kts 150°
2026-05-04 10:36 50.45597 -0.35317 34170 ft 432 kts 150°
2026-05-04 10:36 50.43064 -0.32773 34328 ft 433 kts 150°
2026-05-04 10:36 50.40524 -0.30225 34495 ft 433 kts 150°
2026-05-04 10:37 50.37989 -0.27690 34679 ft 432 kts 150°
2026-05-04 10:37 50.35451 -0.25159 34834 ft 433 kts 150°
2026-05-04 10:37 50.32911 -0.22636 34979 ft 433 kts 150°
2026-05-04 10:37 50.30371 -0.20117 35019 ft 431 kts 150°
2026-05-04 10:39 50.12705 -0.02675 35016 ft 430 kts 150°
2026-05-04 10:40 50.08227 0.00669 35002 ft 424 kts 165°
2026-05-04 10:40 50.02538 0.02966 35029 ft 422 kts 168°
2026-05-04 10:41 49.96846 0.05187 35023 ft 422 kts 168°
2026-05-04 10:41 49.91158 0.07418 35027 ft 421 kts 168°
2026-05-04 10:42 49.85518 0.09624 35035 ft 421 kts 168°
2026-05-04 10:42 49.79832 0.11849 35030 ft 421 kts 168°
2026-05-04 10:43 49.74151 0.14064 35028 ft 420 kts 168°
2026-05-04 10:45 49.51537 0.23096 35037 ft 420 kts 167°
2026-05-04 10:45 49.45879 0.25367 35007 ft 420 kts 167°
2026-05-04 10:46 49.40217 0.27622 35015 ft 421 kts 167°
2026-05-04 10:46 49.34552 0.29878 35012 ft 421 kts 167°
2026-05-04 10:47 49.28886 0.32145 35010 ft 421 kts 167°
2026-05-04 10:47 49.23229 0.34526 35007 ft 421 kts 166°
2026-05-04 10:49 49.00644 0.44056 34961 ft 422 kts 166°
2026-05-04 10:50 48.94981 0.46420 34975 ft 422 kts 166°
2026-05-04 10:52 48.72368 0.55694 34982 ft 421 kts 167°
2026-05-04 10:52 48.66700 0.57895 34981 ft 420 kts 167°
2026-05-04 10:54 48.44054 0.66819 34975 ft 420 kts 166°
2026-05-04 10:56 48.21497 0.75965 34966 ft 420 kts 167°
2026-05-04 10:57 48.15841 0.78189 34965 ft 420 kts 167°
2026-05-04 10:57 48.10172 0.80399 34963 ft 420 kts 167°
2026-05-04 10:58 48.04511 0.82617 34960 ft 421 kts 167°
2026-05-04 10:58 47.98851 0.84835 34945 ft 420 kts 167°
2026-05-04 10:59 47.93198 0.87042 34954 ft 420 kts 167°
2026-05-04 10:59 47.87549 0.89238 34965 ft 419 kts 167°
2026-05-04 11:00 47.81906 0.91423 34966 ft 419 kts 167°
2026-05-04 11:02 47.59415 1.00112 34968 ft 417 kts 167°
2026-05-04 11:05 47.16686 1.05836 34958 ft 413 kts 182°
2026-05-04 11:06 47.10946 1.05702 34957 ft 412 kts 182°
2026-05-04 11:06 47.05211 1.05562 34957 ft 412 kts 182°
2026-05-04 11:10 46.65149 1.03907 34941 ft 411 kts 183°
2026-05-04 11:12 46.45189 1.05501 34941 ft 416 kts 169°
2026-05-04 11:12 46.42368 1.06446 34943 ft 416 kts 169°
2026-05-04 11:12 46.36724 1.08317 34946 ft 416 kts 170°
2026-05-04 11:13 46.31077 1.10186 34949 ft 416 kts 170°
2026-05-04 11:13 46.25437 1.12069 34952 ft 416 kts 170°
2026-05-04 11:14 46.19789 1.13947 34953 ft 416 kts 170°
2026-05-04 11:16 45.97215 1.21402 34972 ft 416 kts 170°
2026-05-04 11:16 45.91569 1.23245 34973 ft 416 kts 171°
2026-05-04 11:17 45.85931 1.25091 34979 ft 416 kts 170°
2026-05-04 11:19 45.63419 1.32446 34961 ft 415 kts 171°
2026-05-04 11:19 45.57790 1.34280 34960 ft 415 kts 171°
2026-05-04 11:20 45.52155 1.36101 34946 ft 415 kts 171°
2026-05-04 11:20 45.46521 1.37915 34947 ft 415 kts 171°
2026-05-04 11:22 45.24009 1.45157 34959 ft 415 kts 171°
2026-05-04 11:23 45.18366 1.46958 34964 ft 415 kts 171°
2026-05-04 11:25 44.98603 1.53238 34927 ft 416 kts 172°
2026-05-04 11:25 44.92949 1.55032 34941 ft 416 kts 172°
2026-05-04 11:27 44.67602 1.63020 34972 ft 415 kts 172°
2026-05-04 11:28 44.61964 1.64794 34970 ft 415 kts 172°
2026-05-04 11:28 44.56323 1.66557 34964 ft 415 kts 172°
2026-05-04 11:29 44.50690 1.68316 34979 ft 415 kts 172°
2026-05-04 11:29 44.45056 1.70072 34981 ft 415 kts 172°
2026-05-04 11:33 44.06553 1.79952 34964 ft 411 kts 176°
2026-05-04 11:33 44.00900 1.81205 34949 ft 411 kts 176°
2026-05-04 11:34 43.95245 1.82442 34952 ft 411 kts 177°
2026-05-04 11:34 43.89574 1.83214 34957 ft 408 kts 181°
2026-05-04 11:35 43.83911 1.83627 34965 ft 407 kts 182°
2026-05-04 11:35 43.78246 1.84067 34964 ft 408 kts 182°
2026-05-04 11:36 43.72613 1.84604 34975 ft 408 kts 181°
2026-05-04 11:36 43.66946 1.85169 34979 ft 408 kts 181°
2026-05-04 11:37 43.61283 1.85725 34962 ft 408 kts 182°
2026-05-04 11:37 43.55624 1.86278 34964 ft 407 kts 182°
2026-05-04 11:38 43.49974 1.86822 34971 ft 407 kts 182°
2026-05-04 11:38 43.44326 1.87362 34966 ft 406 kts 182°
2026-05-04 11:39 43.38724 1.87893 34950 ft 406 kts 182°
2026-05-04 11:41 43.19015 1.89786 34954 ft 406 kts 182°
2026-05-04 11:41 43.13382 1.90330 34956 ft 405 kts 182°
2026-05-04 11:42 43.07754 1.90864 34956 ft 405 kts 182°
2026-05-04 11:42 43.02133 1.91394 34928 ft 405 kts 182°
2026-05-04 11:43 42.96507 1.91920 34911 ft 405 kts 182°
2026-05-04 11:43 42.90877 1.92452 34924 ft 405 kts 182°
2026-05-04 11:44 42.85291 1.92984 34928 ft 405 kts 182°
2026-05-04 11:44 42.79668 1.93520 34930 ft 405 kts 182°
2026-05-04 11:45 42.74044 1.94049 34939 ft 405 kts 182°
2026-05-04 11:45 42.68419 1.94586 34935 ft 407 kts 180°
2026-05-04 11:46 42.62815 1.96290 34935 ft 415 kts 172°
2026-05-04 11:46 42.57233 1.98313 34940 ft 415 kts 173°
2026-05-04 11:47 42.51642 2.00328 34949 ft 416 kts 173°
2026-05-04 11:47 42.46046 2.02329 34954 ft 416 kts 173°
2026-05-04 11:48 42.40464 2.04328 34941 ft 414 kts 173°
2026-05-04 11:48 42.34872 2.06330 34932 ft 416 kts 173°
2026-05-04 11:49 42.29276 2.08314 34940 ft 415 kts 173°
2026-05-04 11:49 42.23679 2.10288 34946 ft 415 kts 173°
2026-05-04 11:50 42.18124 2.12258 34944 ft 416 kts 173°
2026-05-04 11:50 42.12531 2.14235 34925 ft 416 kts 173°
2026-05-04 11:51 42.06930 2.16211 34932 ft 416 kts 173°
2026-05-04 11:51 42.01329 2.18190 34944 ft 416 kts 173°
2026-05-04 11:52 41.95734 2.20162 34924 ft 415 kts 173°
2026-05-04 11:52 41.90147 2.22128 34938 ft 415 kts 173°
2026-05-04 11:53 41.84598 2.24076 34942 ft 415 kts 173°
2026-05-04 11:53 41.79009 2.26015 34948 ft 414 kts 173°
2026-05-04 11:55 41.56722 2.33790 34940 ft 413 kts 174°
2026-05-04 11:56 41.51191 2.35711 34928 ft 413 kts 174°
2026-05-04 11:56 41.45634 2.37629 34951 ft 412 kts 174°
2026-05-04 11:57 41.40082 2.39559 34963 ft 412 kts 174°
2026-05-04 11:57 41.34536 2.41483 34968 ft 412 kts 174°
2026-05-04 11:58 41.28988 2.43394 34961 ft 411 kts 174°
2026-05-04 11:58 41.23445 2.45295 34978 ft 411 kts 174°
2026-05-04 11:59 41.17920 2.47191 34544 ft 408 kts 174°
2026-05-04 11:59 41.15182 2.48125 33993 ft 406 kts 174°
2026-05-04 11:59 41.12444 2.49061 33499 ft 407 kts 174°
2026-05-04 11:59 41.09694 2.50002 32968 ft 409 kts 174°
2026-05-04 12:00 41.06927 2.50946 32463 ft 411 kts 174°
2026-05-04 12:00 41.04187 2.51877 31989 ft 413 kts 173°
2026-05-04 12:00 41.01394 2.52830 31537 ft 415 kts 173°
2026-05-04 12:00 40.98622 2.53785 31079 ft 407 kts 173°
2026-05-04 12:01 40.95920 2.54723 30629 ft 396 kts 173°
2026-05-04 12:01 40.93285 2.55636 30199 ft 386 kts 173°
2026-05-04 12:02 40.78528 2.60637 27261 ft 352 kts 174°
2026-05-04 12:03 40.76158 2.61433 26798 ft 351 kts 174°
2026-05-04 12:03 40.73797 2.62226 26344 ft 349 kts 174°
2026-05-04 12:03 40.71478 2.63007 25905 ft 348 kts 174°
2026-05-04 12:03 40.69139 2.63802 25470 ft 346 kts 173°
2026-05-04 12:04 40.66779 2.64606 25030 ft 345 kts 173°
2026-05-04 12:04 40.64493 2.65383 24612 ft 344 kts 173°
2026-05-04 12:04 40.62177 2.66164 24188 ft 343 kts 173°
2026-05-04 12:04 40.59872 2.66943 23779 ft 342 kts 173°
2026-05-04 12:05 40.57571 2.67720 23312 ft 341 kts 172°
2026-05-04 12:05 40.55280 2.68495 22821 ft 340 kts 172°
2026-05-04 12:05 40.52994 2.69265 22348 ft 337 kts 172°
2026-05-04 12:05 40.50734 2.70071 21871 ft 338 kts 167°
2026-05-04 12:06 40.48556 2.71294 21404 ft 342 kts 158°
2026-05-04 12:06 40.46478 2.72819 20943 ft 341 kts 157°
2026-05-04 12:06 40.44411 2.74330 20496 ft 339 kts 157°
2026-05-04 12:06 40.42348 2.75825 20043 ft 337 kts 157°
2026-05-04 12:07 40.40299 2.77308 19606 ft 335 kts 157°
2026-05-04 12:07 40.38262 2.78782 19175 ft 334 kts 157°
2026-05-04 12:07 40.36256 2.80231 18755 ft 332 kts 157°
2026-05-04 12:07 40.34236 2.81690 18337 ft 331 kts 156°
2026-05-04 12:08 40.32221 2.83142 17860 ft 329 kts 156°
2026-05-04 12:08 40.30226 2.84580 17391 ft 327 kts 156°
2026-05-04 12:08 40.28241 2.86010 16921 ft 324 kts 156°
2026-05-04 12:08 40.26275 2.87427 16468 ft 322 kts 156°
2026-05-04 12:09 40.24319 2.88838 16033 ft 319 kts 156°
2026-05-04 12:09 40.22383 2.90233 15610 ft 316 kts 156°
2026-05-04 12:09 40.20465 2.91615 15178 ft 314 kts 156°
2026-05-04 12:09 40.18562 2.92986 14762 ft 311 kts 156°
2026-05-04 12:10 40.16671 2.94346 14359 ft 309 kts 156°
2026-05-04 12:10 40.14795 2.95693 13960 ft 307 kts 156°
2026-05-04 12:10 40.12928 2.97028 13545 ft 305 kts 156°
2026-05-04 12:10 40.11075 2.98350 13089 ft 302 kts 156°
2026-05-04 12:11 40.09238 2.99665 12650 ft 300 kts 155°
2026-05-04 12:11 40.07413 3.00974 12217 ft 298 kts 155°
2026-05-04 12:11 40.05602 3.02273 11790 ft 296 kts 155°
2026-05-04 12:11 40.03803 3.03566 11369 ft 294 kts 155°
2026-05-04 12:12 40.02016 3.04850 10956 ft 292 kts 155°
2026-05-04 12:12 40.00267 3.06104 10536 ft 290 kts 155°
2026-05-04 12:12 39.98507 3.07362 10127 ft 287 kts 155°
2026-05-04 12:12 39.96758 3.08607 9713 ft 285 kts 155°
2026-05-04 12:13 39.95014 3.09813 9271 ft 282 kts 160°
2026-05-04 12:14 39.82843 3.05903 6318 ft 249 kts 205°
2026-05-04 12:15 39.81302 3.05045 5899 ft 233 kts 205°
2026-05-04 12:15 39.79872 3.04246 5555 ft 215 kts 205°
2026-05-04 12:15 39.78538 3.03502 5228 ft 204 kts 205°
2026-05-04 12:15 39.77255 3.02784 4931 ft 193 kts 205°
2026-05-04 12:16 39.76064 3.02118 4603 ft 180 kts 206°
2026-05-04 12:16 39.74933 3.01484 4278 ft 173 kts 206°
2026-05-04 12:16 39.73853 3.00882 3947 ft 165 kts 206°
2026-05-04 12:16 39.72826 3.00307 3622 ft 156 kts 207°
2026-05-04 12:17 39.71849 2.99761 3313 ft 150 kts 206°
2026-05-04 12:17 39.70912 2.99239 2989 ft 148 kts 205°
2026-05-04 12:17 39.69993 2.98726 2841 ft 140 kts 205°
2026-05-04 12:17 39.69105 2.98231 2742 ft 138 kts 206°
2026-05-04 12:18 39.68225 2.97739 2646 ft 137 kts 204°
2026-05-04 12:18 39.67362 2.97258 2572 ft 134 kts 204°
2026-05-04 12:18 39.66513 2.96782 2508 ft 134 kts 206°
2026-05-04 12:18 39.65659 2.96304 2505 ft 131 kts 207°
2026-05-04 12:19 39.64913 2.95673 2494 ft 128 kts 220°
2026-05-04 12:19 39.64312 2.94799 2488 ft 130 kts 235°
2026-05-04 12:19 39.63832 2.93782 2490 ft 133 kts 237°
2026-05-04 12:19 39.63362 2.92779 2487 ft 132 kts 237°
2026-05-04 12:20 39.62885 2.91763 2490 ft 129 kts 238°
2026-05-04 12:20 39.62425 2.90784 2467 ft 128 kts 238°
2026-05-04 12:20 39.61965 2.89805 2366 ft 126 kts 237°
2026-05-04 12:20 39.61509 2.88835 2223 ft 127 kts 237°
2026-05-04 12:21 39.61051 2.87862 2074 ft 128 kts 237°
2026-05-04 12:21 39.60587 2.86876 1919 ft 127 kts 237°
2026-05-04 12:21 39.60129 2.85902 1744 ft 126 kts 235°
2026-05-04 12:21 39.59677 2.84942 1582 ft 125 kts 236°
2026-05-04 12:22 39.59215 2.83960 1412 ft 129 kts 237°
2026-05-04 12:22 39.58745 2.82965 1249 ft 130 kts 238°
2026-05-04 12:22 39.58279 2.81975 1077 ft 126 kts 237°
2026-05-04 12:22 39.57825 2.81011 940 ft 125 kts 236°
2026-05-04 12:23 39.57381 2.80070 751 ft 121 kts 237°
2026-05-04 12:23 39.56920 2.79093 590 ft 131 kts 237°
2026-05-04 12:23 39.56453 2.78102 402 ft 127 kts 236°
2026-05-04 12:23 39.55977 2.77099 239 ft 132 kts 237°
2026-05-04 12:24 39.55507 2.76084 61 ft 131 kts 238°
2026-05-04 12:24 39.55043 2.75111 28 ft 119 kts 236°
2026-05-04 12:24 39.54713 2.74426 33 ft 62 kts 239°
2026-05-04 12:24 39.54559 2.74034 34 ft 45 kts 257°
2026-05-04 12:25 39.54549 2.73861 34 ft 0 kts 269°
2026-05-04 12:25 39.54549 2.73860 34 ft 2 kts 269°
2026-05-04 12:25 39.54549 2.73852 34 ft 0 kts 269°
2026-05-04 12:26 39.54549 2.73826 34 ft 10 kts 269°
2026-05-04 12:26 39.54562 2.73701 35 ft 10 kts 299°
2026-05-04 12:26 39.54604 2.73632 35 ft 9 kts 328°
2026-05-04 12:26 39.54640 2.73641 33 ft 8 kts 40°
2026-05-04 12:27 39.54681 2.73716 35 ft 13 kts 59°
2026-05-04 12:27 39.54726 2.73815 34 ft 13 kts 59°
2026-05-04 12:27 39.54770 2.73911 34 ft 12 kts 59°
2026-05-04 12:27 39.54822 2.73990 33 ft 11 kts 27°
2026-05-04 12:28 39.54889 2.73970 33 ft 10 kts 334°
2026-05-04 12:28 39.54947 2.73929 33 ft 9 kts 327°
2026-05-04 12:28 39.54997 2.73886 33 ft 8 kts 326°
2026-05-04 12:28 39.55064 2.73828 33 ft 15 kts 328°
2026-05-04 12:29 39.55165 2.73749 33 ft 16 kts 323°
2026-05-04 12:29 39.55176 2.73687 34 ft 6 kts 240°
2026-05-04 12:29 39.55201 2.73624 34 ft 13 kts 328°
2026-05-04 12:29 39.55294 2.73546 34 ft 13 kts 323°
2026-05-04 12:30 39.55370 2.73483 33 ft 13 kts 329°
2026-05-04 12:30 39.55418 2.73406 33 ft 11 kts 265°
2026-05-04 12:30 39.55380 2.73317 33 ft 12 kts 238°
2026-05-04 12:30 39.55336 2.73224 33 ft 13 kts 238°
2026-05-04 12:31 39.55288 2.73124 32 ft 13 kts 238°
2026-05-04 12:31 39.55245 2.73031 32 ft 12 kts 240°
2026-05-04 12:31 39.55201 2.72932 31 ft 13 kts 240°
2026-05-04 12:31 39.55153 2.72826 31 ft 14 kts 238°
2026-05-04 12:32 39.55098 2.72717 30 ft 15 kts 236°
2026-05-04 12:32 39.54993 2.72675 29 ft 0 kts 147°